Total_Precipitation_Accumulation
0.21 0.22 0.31 0.47 0.46 0.31 0.12 0.03 0.02 0.03 0.04 0.06 0.08 0.09 0.08 0.09 0.15 0.31 0.32 0.24 0.23 0.28 0.41 0.75 1.16 1.35 1.37 1.31 1.15 1.02 0.95 0.89 0.94 1.01 1.07 1.08 1.05 1.00 0.97 1.03 1.04 1.16 1.30 1.22 1.19 1.10 1.07 0.99 0.84
0.23 0.34 0.55 0.66 0.50 0.31 0.12 0.04 0.03 0.03 0.05 0.06 0.08 0.09 0.09 0.10 0.11 0.20 0.31 0.32 0.29 0.33 0.46 0.72 1.13 1.39 1.46 1.45 1.35 1.21 1.16 1.09 1.06 1.14 1.19 1.19 1.22 1.19 1.14 1.17 1.15 1.14 1.21 1.11 1.01 0.86 0.79 0.71 0.65
0.39 0.55 0.76 0.73 0.53 0.29 0.12 0.04 0.04 0.05 0.06 0.08 0.10 0.11 0.13 0.16 0.16 0.22 0.34 0.41 0.44 0.47 0.61 0.89 1.24 1.47 1.58 1.53 1.52 1.47 1.40 1.33 1.28 1.25 1.28 1.32 1.32 1.33 1.25 1.18 1.15 1.10 1.13 1.01 0.88 0.73 0.60 0.55 0.51
0.63 0.82 0.86 0.72 0.51 0.25 0.11 0.07 0.07 0.08 0.08 0.09 0.13 0.19 0.20 0.19 0.23 0.29 0.42 0.51 0.57 0.64 0.78 1.09 1.40 1.60 1.68 1.60 1.58 1.60 1.58 1.56 1.51 1.39 1.35 1.40 1.41 1.33 1.22 1.13 1.06 0.96 0.95 0.93 0.81 0.67 0.57 0.50 0.49
0.93 1.06 0.88 0.67 0.43 0.22 0.10 0.09 0.10 0.12 0.12 0.13 0.16 0.23 0.28 0.27 0.29 0.42 0.60 0.70 0.74 0.86 1.01 1.27 1.64 1.89 1.92 1.81 1.75 1.73 1.73 1.73 1.73 1.61 1.50 1.54 1.58 1.49 1.27 1.13 1.00 0.87 0.85 0.82 0.75 0.63 0.57 0.51 0.48
1.22 1.21 0.93 0.59 0.35 0.22 0.11 0.10 0.12 0.14 0.15 0.17 0.23 0.30 0.41 0.41 0.44 0.56 0.79 0.92 0.97 1.09 1.25 1.52 1.90 2.08 2.18 2.08 1.97 1.96 1.92 1.85 1.83 1.83 1.76 1.70 1.72 1.64 1.41 1.15 1.02 0.95 0.90 0.85 0.80 0.71 0.61 0.54 0.46
1.22 1.22 0.88 0.45 0.30 0.26 0.15 0.13 0.17 0.18 0.18 0.21 0.27 0.37 0.52 0.60 0.71 0.80 1.00 1.21 1.32 1.44 1.62 1.79 2.04 2.22 2.46 2.33 2.12 2.14 2.12 2.00 1.95 1.95 1.92 1.79 1.75 1.64 1.46 1.22 1.10 1.06 1.02 0.94 0.87 0.77 0.68 0.60 0.50
1.22 1.32 0.88 0.44 0.28 0.30 0.22 0.18 0.21 0.22 0.23 0.23 0.34 0.46 0.58 0.72 0.90 1.12 1.35 1.48 1.70 1.83 2.02 2.12 2.27 2.38 2.59 2.58 2.35 2.20 2.08 2.01 2.03 1.97 1.80 1.55 1.54 1.55 1.45 1.17 1.12 1.10 1.04 1.04 0.95 0.81 0.73 0.63 0.51
1.27 1.36 0.86 0.46 0.34 0.32 0.29 0.31 0.27 0.26 0.35 0.38 0.45 0.53 0.65 0.86 1.17 1.46 1.74 1.88 2.08 2.28 2.40 2.47 2.49 2.49 2.62 2.72 2.55 2.47 2.31 2.22 2.14 2.02 1.73 1.59 1.65 1.57 1.40 1.13 1.01 1.10 1.06 1.11 1.14 1.00 0.83 0.67 0.56
1.32 1.13 0.65 0.41 0.38 0.39 0.36 0.39 0.38 0.43 0.49 0.54 0.63 0.72 0.89 1.20 1.59 1.79 1.91 2.02 2.19 2.39 2.50 2.66 2.64 2.66 2.75 2.79 2.74 2.74 2.55 2.40 2.24 2.00 1.84 1.78 1.71 1.68 1.48 1.35 1.12 1.14 1.15 1.13 1.18 1.05 0.94 0.73 0.55
0.97 0.82 0.56 0.44 0.41 0.45 0.47 0.45 0.44 0.52 0.56 0.54 0.63 0.84 1.16 1.55 1.95 2.02 2.17 2.29 2.33 2.52 2.63 2.78 2.79 2.88 2.92 2.92 2.82 2.75 2.60 2.59 2.47 2.26 2.01 1.91 1.86 1.80 1.77 1.56 1.37 1.31 1.21 1.22 1.09 0.98 0.88 0.74 0.62
0.69 0.56 0.52 0.51 0.46 0.51 0.53 0.54 0.55 0.55 0.55 0.53 0.61 0.82 1.20 1.64 1.95 2.07 2.32 2.49 2.62 2.76 2.91 2.95 2.95 3.07 3.12 3.08 2.92 2.73 2.50 2.44 2.45 2.33 2.27 2.11 1.96 1.83 1.71 1.54 1.36 1.28 1.18 1.14 1.04 0.93 0.83 0.72 0.66
0.56 0.45 0.46 0.54 0.57 0.56 0.55 0.55 0.61 0.54 0.52 0.59 0.69 0.94 1.25 1.66 2.04 2.23 2.51 2.71 2.86 3.03 3.11 3.21 3.19 3.15 3.15 3.25 3.20 2.89 2.56 2.32 2.31 2.33 2.34 2.23 1.97 1.79 1.72 1.58 1.52 1.37 1.23 1.20 1.13 1.00 0.91 0.82 0.77
0.47 0.44 0.52 0.60 0.67 0.59 0.60 0.60 0.63 0.58 0.55 0.69 0.82 1.02 1.25 1.65 2.17 2.42 2.73 3.00 2.99 3.23 3.38 3.55 3.49 3.37 3.19 3.12 3.20 3.06 2.83 2.55 2.43 2.34 2.31 2.41 2.22 1.98 1.91 1.71 1.68 1.58 1.47 1.38 1.31 1.18 1.14 1.04 0.96
0.52 0.62 0.66 0.70 0.74 0.64 0.68 0.79 0.67 0.60 0.56 0.68 0.83 1.04 1.27 1.60 2.07 2.42 2.70 2.92 3.15 3.34 3.59 3.74 3.79 3.66 3.38 3.18 3.22 3.13 2.97 2.85 2.69 2.35 2.28 2.40 2.44 2.32 2.20 1.93 1.80 1.74 1.71 1.71 1.63 1.48 1.38 1.28 1.14
0.83 1.01 0.93 0.65 0.71 0.72 0.85 0.91 0.62 0.59 0.62 0.65 0.76 0.99 1.21 1.43 1.81 2.18 2.57 2.82 3.09 3.44 3.65 3.78 3.87 3.88 3.65 3.36 3.30 3.29 3.12 2.98 2.86 2.62 2.41 2.37 2.48 2.53 2.50 2.15 1.89 1.79 1.81 1.79 1.72 1.61 1.49 1.29 1.21
1.21 1.00 0.76 0.58 0.60 0.77 0.80 0.84 0.68 0.62 0.66 0.64 0.68 0.87 1.16 1.35 1.58 1.87 2.28 2.67 2.88 3.27 3.56 3.87 3.90 3.87 3.80 3.66 3.58 3.53 3.44 3.27 3.09 2.82 2.58 2.53 2.57 2.68 2.74 2.35 2.04 1.95 1.96 1.90 1.85 1.75 1.66 1.44 1.28
0.99 0.65 0.53 0.55 0.58 0.71 0.70 0.63 0.68 0.69 0.70 0.67 0.71 0.82 1.04 1.29 1.38 1.61 1.98 2.48 2.72 3.08 3.43 3.66 3.99 4.02 4.10 4.12 3.98 3.88 3.82 3.65 3.40 3.04 2.74 2.65 2.62 2.71 2.91 2.66 2.34 2.22 2.15 2.07 1.93 1.82 1.80 1.74 1.61
0.77 0.67 0.52 0.42 0.48 0.67 0.68 0.58 0.66 0.65 0.70 0.72 0.75 0.81 0.90 1.09 1.25 1.49 1.84 2.27 2.62 2.86 3.21 3.38 3.64 3.94 4.08 4.07 3.84 3.66 3.57 3.69 3.66 3.34 3.05 2.99 2.85 2.74 2.88 2.86 2.67 2.46 2.30 2.16 2.05 1.98 1.92 1.93 1.96
0.93 0.88 0.64 0.49 0.43 0.65 0.69 0.63 0.64 0.67 0.72 0.74 0.77 0.76 0.82 0.92 1.09 1.35 1.76 2.00 2.27 2.58 2.82 3.14 3.28 3.63 3.77 3.68 3.68 3.59 3.60 3.67 3.73 3.64 3.44 3.32 3.19 2.99 2.88 2.87 2.82 2.69 2.52 2.38 2.29 2.22 2.19 2.08 2.04
1.01 0.86 0.73 0.69 0.62 0.72 0.81 0.81 0.67 0.67 0.65 0.61 0.65 0.65 0.74 0.83 0.94 1.15 1.52 1.83 1.98 2.27 2.62 2.78 2.94 3.23 3.56 3.69 3.91 4.06 4.05 3.89 3.75 3.64 3.61 3.52 3.49 3.34 3.05 2.90 2.91 2.87 2.73 2.55 2.46 2.39 2.41 2.45 2.37
1.06 0.65 0.71 0.81 1.08 1.07 0.88 1.10 0.77 0.66 0.60 0.58 0.61 0.62 0.71 0.81 0.88 1.02 1.16 1.46 1.70 1.89 2.35 2.71 2.93 3.14 3.36 3.76 3.89 3.84 3.69 3.44 3.23 3.33 3.43 3.50 3.52 3.53 3.31 3.15 3.12 3.01 2.86 2.73 2.72 2.64 2.61 2.66 2.69
0.95 0.66 0.78 0.95 1.18 1.21 0.84 0.97 0.77 0.54 0.58 0.61 0.63 0.66 0.79 0.92 0.96 1.01 1.08 1.25 1.46 1.65 2.06 2.49 2.78 3.14 3.41 3.57 3.70 3.83 3.63 3.34 3.25 3.26 3.31 3.28 3.29 3.38 3.42 3.32 3.34 3.24 3.07 2.93 2.93 2.91 2.86 2.80 2.77
1.03 1.09 1.20 1.32 1.78 1.82 0.79 0.78 0.77 0.66 0.70 0.66 0.64 0.69 0.83 0.96 1.00 0.99 1.06 1.20 1.40 1.54 1.78 2.21 2.51 2.71 3.05 3.38 3.47 3.56 3.56 3.50 3.41 3.22 3.15 3.18 3.19 3.22 3.30 3.37 3.35 3.31 3.27 3.13 3.03 2.99 2.96 2.88 2.77
1.52 2.22 2.95 2.93 2.62 1.45 0.54 0.63 0.77 0.70 0.72 0.77 0.79 0.81 0.87 0.91 0.94 0.95 1.03 1.18 1.40 1.57 1.72 1.89 2.12 2.29 2.53 2.85 3.07 3.17 3.31 3.40 3.27 3.13 2.96 2.92 2.95 2.95 3.00 3.11 3.20 3.22 3.21 3.24 3.19 3.12 3.01 2.94 2.87
1.56 1.92 2.31 1.96 1.24 0.72 0.50 0.65 0.76 0.69 0.71 0.73 0.78 0.79 0.79 0.85 0.91 0.94 0.97 1.05 1.23 1.44 1.63 1.72 1.85 1.99 2.19 2.39 2.57 2.80 3.00 3.20 3.21 3.10 2.89 2.79 2.71 2.69 2.83 2.89 2.86 2.91 3.00 3.10 3.18 3.13 2.97 2.86 2.78
1.44 1.48 1.35 1.67 1.07 0.73 0.63 0.59 0.57 0.51 0.53 0.62 0.68 0.69 0.76 0.86 0.89 0.90 0.91 0.95 1.09 1.24 1.45 1.57 1.69 1.82 1.93 2.08 2.27 2.51 2.67 2.79 2.86 2.95 2.87 2.78 2.70 2.63 2.59 2.62 2.61 2.56 2.63 2.78 2.94 2.97 2.88 2.78 2.67
1.18 1.23 1.54 2.19 1.77 1.07 0.66 0.53 0.68 0.65 0.63 0.67 0.70 0.76 0.86 0.90 0.86 0.85 0.89 0.96 1.07 1.13 1.27 1.44 1.55 1.64 1.70 1.82 1.95 2.10 2.32 2.54 2.64 2.76 2.72 2.63 2.62 2.63 2.52 2.38 2.36 2.33 2.33 2.43 2.56 2.60 2.58 2.59 2.51
1.13 1.44 1.73 1.81 1.49 1.29 0.96 0.84 0.85 0.80 0.74 0.76 0.77 0.82 0.90 0.93 0.91 0.92 0.95 1.04 1.14 1.12 1.19 1.37 1.49 1.61 1.67 1.71 1.78 1.85 1.94 2.10 2.31 2.51 2.61 2.52 2.54 2.57 2.51 2.34 2.26 2.22 2.16 2.17 2.23 2.22 2.27 2.31 2.31
0.98 1.13 1.43 1.94 1.50 1.08 1.05 1.03 0.83 0.79 0.75 0.74 0.77 0.81 0.85 0.88 0.90 0.96 1.03 1.03 1.06 1.18 1.25 1.34 1.43 1.56 1.68 1.74 1.75 1.80 1.84 1.90 2.03 2.14 2.36 2.43 2.51 2.49 2.51 2.42 2.28 2.18 2.08 2.04 2.06 2.03 2.00 2.01 2.03